Regional Weather Roundup
Issued by NWS

Home | Current Version | Previous Version | Graphics & Text | Print | Product List | Glossary On
Versions: 1 2 3 4 5 6 7 8 9 10 11 12 13 14 15 16 17 18 19 20 21 22 23 24 25 26 27
000
ASUS45 KBOU 242107
RWRCO

WEATHER ROUNDUP FOR COLORADO
NATIONAL WEATHER SERVICE DENVER/BOULDER CO
300 PM MDT TUE MAY 24 2016

NOTE: "FAIR" INDICATES FEW OR NO CLOUDS BELOW 12000 FEET WITH NO
SIGNIFICANT WEATHER AND/OR OBSTRUCTIONS TO VISIBILITY.

COZ001>005-013-030-031-242200-
...NORTHWEST COLORADO...

CITY           SKY/WX    TMP DP  RH WIND       PRES   REMARKS
CRAIG          FAIR      71  24  17 SW21G35   29.86F
HAYDEN         FAIR      64  21  19 SW9       29.88F
MEEKER         FAIR      72  20  14 SW23G30   29.88F
MOUNT WERNER   NOT AVBL
STEAMBOAT SPGS FAIR      64  28  25 NW10      29.90F
WALDEN         FAIR      61  19  20 W20G26    29.98S
$$

COZ006>008-011-242200-
...WEST CENTRAL VALLEYS...

CITY           SKY/WX    TMP DP  RH WIND       PRES   REMARKS
GRAND JUNCTION FAIR      76  20  12 SW13G22   29.83S
MONTROSE       FAIR      76  19  11 SW24G38   29.87F
EAGLE          SUNNY     72  18  13 SW22      29.89F
RIFLE          FAIR      76  20  12 S20G29    29.84F
DELTA          FAIR      79  17   9 W21G32    29.85F
NUCLA          FAIR      73  16  11 SW17G32   29.95S
$$

COZ017>023-064>068-242200-
...SOUTHWEST COLORADO...

CITY           SKY/WX    TMP DP  RH WIND       PRES   REMARKS
DURANGO        FAIR      72  18  13 S18G30    30.01F
CORTEZ         FAIR      73  16  11 SW22G32   29.96F
PAGOSA SPRINGS FAIR      66  10  11 S12G28    30.08S
TELLURIDE      FAIR      58  13  16 SW24G37   30.09F
WOLF CREEK PAS PTSUNNY   37  18  44 SW25G43   30.29R
$$

COZ009-010-012-014-032>034-037-058>063-242200-
...CENTRAL COLORADO...

CITY           SKY/WX    TMP DP  RH WIND       PRES   REMARKS
ASPEN          FAIR      67  21  17 W10G23    29.93F
BUENA VISTA    FAIR      70  13  11 S15G29    29.95F
COPPER MTN     NOT AVBL
BERTHOUD PASS  CLOUDY    34  27  75 SE24G32   30.22R WCI  21
COTTONWOOD PAS PTSUNNY   63  -4   7 W14G26    30.07F
GUNNISON       FAIR      64  12  13 SW8G26    29.99S
KREMMLING      PTSUNNY   70   9   9 SW18G29   29.93S
LEADVILLE      FAIR      57   7  13 S22G31    30.05F
MONARCH PASS   CLOUDY    43  12  28 SW31G43   30.31S
SALIDA         FAIR      73  11   9 SW16G29   30.02F
SUNLIGHT       FAIR      52  21  30 CALM      30.15F
WILKERSON PASS PTSUNNY   52  12  20 S9G16     30.19S
$$

COZ069>075-242200-
...SAN LUIS VALLEY/SANGRE DE CRISTO MOUNTAINS...

CITY           SKY/WX    TMP DP  RH WIND       PRES   REMARKS
ALAMOSA        FAIR      71  18  13 SW22G30   30.02F
LA VETA PASS   PTSUNNY   61  21  21 S9G23     30.18F
SAGUACHE       FAIR      68  18  14 SW15G24   30.02F
$$

COZ035-036-038>040-242200-
...NORTHERN COLORADO FRONT RANGE...

CITY           SKY/WX    TMP DP  RH WIND       PRES   REMARKS
DENVER INTL AP TSTM      64  48  56 E13       29.84F
DMNS CITY PARK   N/A     69  47  44 N13G20    29.84F
AURORA         PTSUNNY   67  47  48 N13       29.84F THUNDER
FRONT RANGE AP PTSUNNY   68  45  42 E22G31    29.86F THUNDER
ERIE MUNI ARPT FAIR      68  48  48 N10       29.86R THUNDER
BOULDER MUN AP FAIR      70  46  43 N8        29.86S
CENTENNIAL     PTSUNNY   75  38  26 S23G37    29.82S
BROOMFIELD     PTSUNNY   63  50  63 N3        29.89F
FORT COLLINS   FAIR      39 N/A N/A E13G20    29.87F THUNDER
LONGMONT       FAIR      73  49  42 NW10      29.87F
$$

COZ041-046-047-076>085-087-088-242200-
...PIKES PEAK/PALMER DIVIDE AND SOUTHERN FOOTHILLS...

CITY           SKY/WX    TMP DP  RH WIND       PRES   REMARKS
COLO. SPRINGS  FAIR      74  39  28 SE21      29.94F
A. F. ACADEMY  FAIR      70  37  30 S23G29    29.92F
SCHRIEVER AFB  NOT AVBL
ELLICOTT       FAIR     N/A N/A N/A S13G24    29.92F
FALCON         FAIR      71  35  26 MISG      29.97F
FORT CARSON    FAIR      73  44  34 SE12      29.90F
LIMON          FAIR      71  51  49 SE20G25   29.91F
MONUMENT HILL  FAIR      66  37  34 S21G32    29.96F
TRINIDAD       FAIR      82  22  11 S13G29    29.88F
$$

COZ042>045-048>051-090-091-242200-
...NORTHEAST COLORADO...

CITY           SKY/WX    TMP DP  RH WIND       PRES   REMARKS
GREELEY ARPT   PTSUNNY   68  50  52 SE20G25   29.84F THUNDER
AKRON          FAIR      73  53  49 SE24G31   29.87F
BURLINGTON     FAIR      75  54  47 SE18G25   29.88F
WRAY           PTSUNNY   75  55  50 SE15G23   29.87F
STERLING       FAIR      77  52  41 S16G26    29.84F
HOLYOKE        FAIR      79  55  44 S18G25    29.87F
FORT MORGAN    FAIR      73  48  41 SE14G25   29.86F
$$

COZ086-089-092>099-242200-
...SOUTHEAST COLORADO...

CITY           SKY/WX    TMP DP  RH WIND       PRES   REMARKS
PUEBLO         FAIR      79  41  25 SE13G22   29.83F
LA JUNTA       FAIR      84  40  21 SE13G21   29.83F
LAMAR          FAIR      85  48  27 VRB6      29.80F
SPRINGFIELD      N/A     84  40  21 S18G29    29.85F
$$




USA.gov is the U.S. government's official web portal to all federal, state and local government web resources and services.